Regional Weather Roundup
Issued by NWS

Home | Current Version | Previous Version | Text Only | Print | Product List | Glossary Off
Versions: 1 2 3 4 5 6 7 8 9 10 11 12 13 14 15 16 17 18 19 20 21 22 23 24 25 26 27 28 29 30 31 32 33 34 35 36 37 38 39 40 41 42 43 44 45 46 47 48 49 50

000
ASUS43 KDTX 181710
RWRMI
MICHIGAN HOURLY REGIONAL WEATHER ROUNDUP
NATIONAL WEATHER SERVICE DETROIT/PONTIAC MI
100 PM EDT SAT APR 18 2015

NOTE: "FAIR" INDICATES FEW OR NO CLOUDS BELOW 12,000 FEET WITH NO
SIGNIFICANT WEATHER AND/OR OBSTRUCTION TO VISIBILITY.

MIZ047>049-052>055-059>063-066>070-074>076-081>083-181800-
SOUTHEAST LOWER MICHIGAN

CITY           SKY/WX    TMP DP  RH WIND       PRES   REMARKS
ADRIAN         SUNNY     74  47  38 E7G17     30.05F
ALMA           SUNNY     67  35  30 E17       30.12S
ANN ARBOR      SUNNY     75  37  25 E13       30.06S
BAD AXE        SUNNY     53  33  47 N15G22    30.17R
CARO           SUNNY     59  35  39 NE12G23   30.15S
DETROIT CITY   SUNNY     64  40  41 E17G23    30.09R
DETROIT        MOSUNNY   75  38  26 NE8       30.07S
FLINT          SUNNY     68  35  29 N18G25    30.11S
GROSSE ILE     SUNNY     72  39  30 NE14      30.06R
HILLSDALE      SUNNY     74  46  37 E9        30.05F
HOWELL         SUNNY     69  33  25 N10G17    30.09S

CITY           SKY/WX    TMP DP  RH WIND       PRES   REMARKS
JACKSON        SUNNY     72  37  28 NE10      30.07S
LAMBERTVILLE   SUNNY     75  45  33 NE6       30.05F
LANSING        SUNNY     68  33  27 NE16      30.11R
LAPEER         FAIR      62  32  31 NE13      30.12S
MASON          SUNNY     69  33  26 NE16G23   30.09S
MONROE         SUNNY     75  46  35 NE6       30.04S
MT. CLEMENS    MOSUNNY   66  36  33 NE14G22   30.08R
PONTIAC        MOSUNNY   68  35  29 NE16      30.09R
PORT HOPE        N/A     45  35  68 N8        30.17R
PORT HURON     SUNNY     55  32  41 N14G24    30.14R
TRI CITIES     SUNNY     60  35  39 E18       30.16R
TROY           SUNNY     70  37  30 NE14      30.10R
SAGINAW HB     SUNNY     61  32  33 NE22      30.15R
$$
MIZ043>046-050>051-056>058-064>065-071>073-077>080-181800-
SOUTHWEST LOWER MICHIGAN

CITY           SKY/WX    TMP DP  RH WIND       PRES   REMARKS
BATTLE CREEK   MOSUNNY   73  40  30 NE10      30.07F
BENTON HARBOR  MOSUNNY   74  46  36 VRB6      30.04F
BIG RAPIDS     SUNNY     64  27  24 NE10G16   30.11F
COLDWATER      SUNNY     72  47  41 NE10      30.05F
FREMONT        FAIR      69  23  17 NE10      30.09S
HOLLAND        SUNNY     74  37  26 NE12      30.08S
GRAND RAPIDS   PTSUNNY   72  33  24 E14G20    30.08S
IONIA          FAIR      70  33  25 NE13G18   30.09S
KALAMAZOO      MOSUNNY   74  40  29 NE10G17   30.07S
LUDINGTON      SUNNY     65  22  19 NE9G20    30.11F
MARSHALL       SUNNY     72  38  29 E12       30.06S
MOUNT PLEASANT SUNNY     67  29  24 NE12G18   30.12S
MUSKEGON       PTSUNNY   73  28  18 E14       30.08F
SOUTH HAVEN    SUNNY     75  36  24 NE10G16   30.05F
$$
MIZ016>042-181800-
NORTHERN LOWER MICHIGAN

CITY           SKY/WX    TMP DP  RH WIND       PRES   REMARKS
ALPENA         SUNNY     56  31  38 N15       30.19S
BEAVER ISLAND  SUNNY     51  30  44 NE12G17   30.20S
BELLAIRE       SUNNY     61  14  16 E12G17    30.17S
CADILLAC       SUNNY     62  28  27 E12G18    30.13F
CHARLEVOIX     SUNNY     49  34  57 N13       30.21F
FRANKFORT      SUNNY     53  32  44 N10       30.17F
GAYLORD        SUNNY     57  18  21 NE10      30.16S
GRAYLING       SUNNY     60  22  23 CALM      30.17R
HARBOR SPRINGS SUNNY     57  26  31 E10       30.18S
HOUGHTON LAKE  SUNNY     62  22  21 NE9G18    30.16R
MANISTEE       SUNNY     61  27  27 NE15G21   30.15F
OSCODA         SUNNY     55  32  40 NE21G29   30.17S
PELLSTON       SUNNY     55  29  36 NE12      30.19F
ROGERS CITY    SUNNY     50  35  56 NW8       30.22R
TRAVERSE CITY  MOSUNNY   51  35  54 VRB3      30.18S
$$
MIZ007>008-015-181800-
EASTERN UPPER MICHIGAN

CITY           SKY/WX    TMP DP  RH WIND       PRES   REMARKS
KINROSS        SUNNY     52  30  43 CALM      30.19S
MACKINAC ISLAN SUNNY     52  31  44 N5        30.19F
NEWBERRY       SUNNY     50  33  52 N12G17    30.19F
S. S. MARIE    SUNNY     55  26  32 N7        30.18S
MUNISING         N/A     40  32  73 NE12      30.25R WCI  33
$$
MIZ004>006-011>014-085-181800-
CENTRAL UPPER MICHIGAN

CITY           SKY/WX    TMP DP  RH WIND       PRES   REMARKS
MANISTIQUE     SUNNY     56  32  39 N8        30.20S
ESCANABA       SUNNY     54  30  40 CALM      30.22S
MENOMINEE      SUNNY     50  34  53 E17       30.22S
SAWYER-GWINN   SUNNY     45  32  61 N8        30.24
$$
MIZ001>003-009>011-084-181800-
WESTERN UPPER MICHIGAN

CITY           SKY/WX    TMP DP  RH WIND       PRES   REMARKS
IRON MOUNTAIN  SUNNY     53  27  36 VRB5      30.21F
HOUGHTON       SUNNY     44  32  62 E12       30.26S
COPPER HARBOR    N/A     39  31  72 E6        30.28S WCI  35
IRONWOOD       SUNNY     54  28  37 E13       30.17F
$$

ABBREVIATIONS USED IN REMARKS
   TC - TEMPERATURE IN CELSIUS
  WCI - WIND CHILL INDEX
   HX - HEAT INDEX
  VSB - VISIBILITY




USA.gov is the U.S. government's official web portal to all federal, state and local government web resources and services.